Change the Weather History Date:

Wednesday, March 5, 2014

  Actual Average (KTOL) Record (KTOL)
Temperature  
Mean Temperature 14 °F 34 °F  
Max Temperature 23 °F 42 °F 70 °F (2004)
Min Temperature 5 °F 25 °F -1 °F (1873)
Degree Days  
Heating Degree Days 51 32  
Month to date heating degree days 162  
Since 1 July heating degree days 4738  
Cooling Degree Days 0 0  
Month to date cooling degree days 0  
Year to date cooling degree days 0  
Moisture  
Dew Point 9 °F    
Average Humidity 69    
Maximum Humidity 85    
Minimum Humidity 58    
Precipitation  
Precipitation 0.00 in 0.08 in 1.15 in (2011)
Month to date precipitation 0.38  
Year to date precipitation 4.50  
Snow  
Snow 0.00 in 0.20 in - ()
Month to date snowfall 1.2  
Since 1 July snowfall 31.7  
Snow Depth -    
Sea Level Pressure  
Sea Level Pressure 30.37 in    
Wind  
Wind Speed 7 mph (NE)    
Max Wind Speed 17 mph    
Max Gust Speed 21 mph    
Visibility 9 miles    
Events Rain , Snow    
T = Trace of Precipitation, MM = Missing Value Source: NWS Daily Summary

Daily Weather History Graph

Daily Weather History Graph

Search for Another Location

Airport or City:

Trip Planner

Search our weather history database for the weather conditions in past years. The results will help you decide how hot, cold, wet, or windy it might be!

Date:

Astronomy

Mar. 05, 2014 Rise Set
Actual Time 7:04 AM EST 6:31 PM EST
Civil Twilight 6:37 AM EST 6:59 PM EST
Nautical Twilight 6:05 AM EST 7:31 PM EST
Astronomical Twilight 5:32 AM EST 8:03 PM EST
Moon 9:25 AM EST (3/5) 11:43 PM EST (3/5)
Length of Visible Light 12h 22m
Length of Day
11h 26m
Waxing Crescent, 23% of the Moon is Illuminated
Mar 5
Waxing Crescent
Mar 8
First Quarter
Mar 16
Full
Mar 23
Last Quarter
Mar 30
New

Hourly Weather History & Observations

Time (EST) Temp. Windchill Dew Point Humidity Pressure Visibility Wind Dir Wind Speed Gust Speed Precip Events Conditions
12:15 AM 5.0 °F - -0.4 °F 78% 30.24 in 10.0 mi Calm Calm - N/A   Partly Cloudy
12:35 AM 6.8 °F -2.0 °F 3.2 °F 85% 30.24 in 9.0 mi NW 4.6 mph - N/A   Mostly Cloudy
12:55 AM 10.4 °F 2.2 °F 5.0 °F 79% 30.25 in 10.0 mi WNW 4.6 mph - N/A   Overcast
1:15 AM 12.2 °F 4.3 °F 6.8 °F 79% 30.25 in 8.0 mi WNW 4.6 mph - N/A   Overcast
1:35 AM 14.0 °F 8.2 °F 8.6 °F 79% 30.24 in 10.0 mi North 3.5 mph - N/A   Overcast
1:55 AM 14.0 °F 8.2 °F 8.6 °F 79% 30.24 in 10.0 mi North 3.5 mph - N/A   Overcast
2:15 AM 15.8 °F 10.2 °F 8.6 °F 73% 30.23 in 10.0 mi North 3.5 mph - N/A   Overcast
2:35 AM 15.8 °F 10.2 °F 8.6 °F 73% 30.23 in 10.0 mi North 3.5 mph - N/A   Overcast
2:55 AM 15.8 °F - 8.6 °F 73% 30.24 in 10.0 mi Calm Calm - N/A   Overcast
3:15 AM 17.6 °F 10.7 °F 6.8 °F 63% 30.23 in 10.0 mi NNE 4.6 mph - N/A   Overcast
3:35 AM 17.6 °F 9.3 °F 5.0 °F 58% 30.24 in 10.0 mi North 5.8 mph - N/A   Overcast
3:55 AM 17.6 °F 10.7 °F 5.0 °F 58% 30.24 in 10.0 mi North 4.6 mph - N/A   Overcast
4:15 AM 17.6 °F 8.2 °F 5.0 °F 58% 30.25 in 10.0 mi North 6.9 mph - N/A   Overcast
4:35 AM 17.6 °F 9.3 °F 6.8 °F 63% 30.26 in 10.0 mi North 5.8 mph - N/A   Overcast
4:55 AM 17.6 °F 9.3 °F 5.0 °F 58% 30.26 in 10.0 mi NNE 5.8 mph - N/A   Overcast
5:15 AM 17.6 °F 9.3 °F 6.8 °F 63% 30.28 in 10.0 mi NNE 5.8 mph - N/A   Overcast
5:35 AM 17.6 °F 9.3 °F 6.8 °F 63% 30.28 in 10.0 mi NNE 5.8 mph - N/A   Overcast
5:55 AM 17.6 °F 9.3 °F 6.8 °F 63% 30.29 in 9.0 mi NNE 5.8 mph - N/A   Overcast
6:15 AM 17.6 °F 9.3 °F 8.6 °F 68% 30.30 in 10.0 mi NNE 5.8 mph - N/A   Overcast
6:35 AM 17.6 °F 9.3 °F 8.6 °F 68% 30.30 in 10.0 mi NNE 5.8 mph - N/A   Overcast
6:55 AM 17.6 °F 8.2 °F 8.6 °F 68% 30.31 in 6.0 mi NNE 6.9 mph - N/A   Haze
7:15 AM 17.6 °F 7.3 °F 8.6 °F 68% 30.31 in 10.0 mi NE 8.1 mph - N/A   Overcast
7:35 AM 17.6 °F 6.4 °F 8.6 °F 68% 30.32 in 9.0 mi NE 9.2 mph - N/A   Scattered Clouds
7:55 AM 17.6 °F 8.2 °F 10.4 °F 73% 30.33 in 8.0 mi NE 6.9 mph - N/A   Partly Cloudy
8:15 AM 17.6 °F 7.3 °F 10.4 °F 73% 30.34 in 3.0 mi NE 8.1 mph - N/A Snow Light Snow
8:35 AM 17.6 °F 7.3 °F 12.2 °F 79% 30.35 in 4.0 mi NE 8.1 mph - N/A Snow Light Snow
8:55 AM 17.6 °F 6.4 °F 12.2 °F 79% 30.36 in 5.0 mi ENE 9.2 mph - N/A   Haze
9:15 AM 17.6 °F 8.2 °F 12.2 °F 79% 30.37 in 3.0 mi NE 6.9 mph - N/A Rain Light Freezing Rain
9:35 AM 17.6 °F 7.3 °F 12.2 °F 79% 30.38 in 2.0 mi NE 8.1 mph - N/A Snow Light Snow
9:55 AM 17.6 °F 7.3 °F 12.2 °F 79% 30.39 in 2.0 mi NE 8.1 mph - N/A Snow Light Snow
10:15 AM 17.6 °F 8.2 °F 12.2 °F 79% 30.39 in 2.5 mi ENE 6.9 mph - N/A Snow Light Snow
10:35 AM 17.6 °F 9.3 °F 12.2 °F 79% 30.39 in 2.0 mi ENE 5.8 mph - N/A Snow Light Snow
10:55 AM 19.4 °F 10.4 °F 12.2 °F 74% 30.39 in 3.0 mi ENE 6.9 mph - N/A   Haze
11:15 AM 19.4 °F 10.4 °F 12.2 °F 74% 30.39 in 2.0 mi ENE 6.9 mph - N/A Snow Light Snow
11:35 AM 19.4 °F 11.5 °F 14.0 °F 80% 30.39 in 3.0 mi ENE 5.8 mph - N/A   Haze
11:55 AM 19.4 °F 9.5 °F 14.0 °F 80% 30.40 in 9.0 mi ENE 8.1 mph - N/A   Clear
12:15 PM 21.2 °F 12.6 °F 12.2 °F 68% 30.41 in 10.0 mi East 6.9 mph - N/A   Clear
12:35 PM 21.2 °F 12.6 °F 12.2 °F 68% 30.41 in 10.0 mi NE 6.9 mph - N/A   Partly Cloudy
12:55 PM 21.2 °F 9.5 °F 12.2 °F 68% 30.39 in 10.0 mi ENE 11.5 mph - N/A   Partly Cloudy
1:15 PM 21.2 °F 8.9 °F 12.2 °F 68% 30.39 in 10.0 mi ENE 12.7 mph - N/A   Clear
1:35 PM 23.0 °F 11.7 °F 12.2 °F 63% 30.39 in 10.0 mi East 11.5 mph - N/A   Clear
1:55 PM 23.0 °F 11.1 °F 10.4 °F 59% 30.38 in 10.0 mi ENE 12.7 mph - N/A   Clear
2:15 PM 23.0 °F 11.1 °F 12.2 °F 63% 30.39 in 10.0 mi ENE 12.7 mph - N/A   Clear
2:35 PM 23.0 °F 10.1 °F 12.2 °F 63% 30.39 in 10.0 mi ENE 15.0 mph - N/A   Scattered Clouds
2:55 PM 23.0 °F 10.1 °F 12.2 °F 63% 30.39 in 10.0 mi ENE 15.0 mph - N/A   Mostly Cloudy
3:15 PM 23.0 °F 10.6 °F 12.2 °F 63% 30.40 in 10.0 mi ENE 13.8 mph - N/A   Mostly Cloudy
3:35 PM 23.0 °F 10.6 °F 12.2 °F 63% 30.40 in 10.0 mi ENE 13.8 mph - N/A   Mostly Cloudy
3:55 PM 21.2 °F 6.8 °F 10.4 °F 63% 30.41 in 10.0 mi ENE 17.3 mph - N/A   Mostly Cloudy
4:15 PM 21.2 °F 7.8 °F 10.4 °F 63% 30.41 in 10.0 mi ENE 15.0 mph 20.7 mph N/A   Mostly Cloudy
4:35 PM 21.2 °F 8.3 °F 10.4 °F 63% 30.41 in 10.0 mi ENE 13.8 mph - N/A   Mostly Cloudy
4:55 PM 21.2 °F 7.3 °F 10.4 °F 63% 30.42 in 10.0 mi ENE 16.1 mph - N/A   Partly Cloudy
5:15 PM 21.2 °F 8.9 °F 10.4 °F 63% 30.42 in 10.0 mi ENE 12.7 mph 19.6 mph N/A   Clear
5:35 PM 21.2 °F 9.5 °F 10.4 °F 63% 30.43 in 10.0 mi ENE 11.5 mph - N/A   Clear
5:55 PM 19.4 °F 7.2 °F 10.4 °F 68% 30.44 in 10.0 mi ENE 11.5 mph - N/A   Clear
6:15 PM 19.4 °F 6.6 °F 10.4 °F 68% 30.44 in 10.0 mi ENE 12.7 mph - N/A   Clear
6:35 PM 19.4 °F 6.6 °F 10.4 °F 68% 30.45 in 10.0 mi ENE 12.7 mph - N/A   Clear
6:55 PM 19.4 °F 6.6 °F 8.6 °F 63% 30.45 in 10.0 mi East 12.7 mph - N/A   Clear
7:15 PM 19.4 °F 6.6 °F 10.4 °F 68% 30.46 in 10.0 mi East 12.7 mph 18.4 mph N/A   Clear
7:35 PM 19.4 °F 6.6 °F 10.4 °F 68% 30.46 in 10.0 mi East 12.7 mph - N/A   Clear
7:55 PM 17.6 °F 5.0 °F 10.4 °F 73% 30.46 in 10.0 mi ENE 11.5 mph - N/A   Clear
8:15 PM 17.6 °F 5.0 °F 10.4 °F 73% 30.46 in 10.0 mi ENE 11.5 mph - N/A   Clear
8:35 PM 17.6 °F 4.3 °F 8.6 °F 68% 30.46 in 10.0 mi ENE 12.7 mph - N/A   Clear
8:55 PM 15.8 °F 2.1 °F 8.6 °F 73% 30.46 in 10.0 mi ENE 12.7 mph - N/A   Clear
9:15 PM 15.8 °F 1.4 °F 6.8 °F 68% 30.46 in 10.0 mi ENE 13.8 mph - N/A   Clear
9:35 PM 15.8 °F 1.4 °F 6.8 °F 68% 30.46 in 10.0 mi ENE 13.8 mph - N/A   Clear
9:55 PM 15.8 °F 2.1 °F 6.8 °F 68% 30.46 in 10.0 mi ENE 12.7 mph - N/A   Clear
10:15 PM 15.8 °F 2.1 °F 6.8 °F 68% 30.46 in 10.0 mi ENE 12.7 mph - N/A   Clear
10:35 PM 14.0 °F -0.2 °F 6.8 °F 73% 30.46 in 10.0 mi ENE 12.7 mph - N/A   Clear
10:55 PM 14.0 °F -0.2 °F 6.8 °F 73% 30.46 in 10.0 mi ENE 12.7 mph - N/A   Clear
11:15 PM 14.0 °F 0.5 °F 5.0 °F 67% 30.46 in 10.0 mi ENE 11.5 mph - N/A   Clear
11:35 PM 14.0 °F 1.2 °F 5.0 °F 67% 30.46 in 10.0 mi ENE 10.4 mph - N/A   Clear
11:55 PM 12.2 °F -1.8 °F 5.0 °F 73% 30.45 in 10.0 mi ENE 11.5 mph - N/A   Clear